Skip Page Navigation
NASA JPL Caltech
NASA Logo - Jet Propulsion Laboratory + View the NASA Portal
+ Center for Near-Earth Object Studies
JPL Home Earth Solar System Stars & Galaxies Technology
JPL Solar System Dynamics
BODIES ORBITS EPHEMERIDES TOOLS PHYSICAL DATA DISCOVERY FAQ SITE MAP
JPL Small-Body Database Browser
Search: [ help ]  
134942 (2001 BO53)
Classification: Main-belt Asteroid          SPK-ID: 2134942
Ephemeris | Orbit Diagram | Orbital Elements | Mission Design | Physical Parameters | Discovery Circumstances ]

[ show orbit diagram ]
Orbital Elements at Epoch 2459000.5 (2020-May-31.0) TDB
Reference: JPL 18 (heliocentric ecliptic J2000)
 Element Value Uncertainty (1-sigma)   Units 
e .1933518523620533 4.347e-08  
a 2.27259206890733 1.0951e-08 au
q 1.833182182720787 9.7654e-08 au
i 6.087217173495488 5.5611e-06 deg
node 340.5837954396716 3.9035e-05 deg
peri 46.95345710323011 4.1421e-05 deg
M 319.8245552652537 1.4989e-05 deg
tp 2459140.149327674636
(2020-Oct-17.64932767)
5.2608e-05 TDB
period 1251.355356357486
3.43
9.0451e-06
2.476e-08
d
yr
n .2876880641226549 2.0795e-09 deg/d
Q 2.712001955093874 1.3069e-08 au
  Orbit Determination Parameters
   # obs. used (total)      587  
   data-arc span      8697 days (23.81 yr)  
   first obs. used      1996-10-09  
   last obs. used      2020-08-01  
   planetary ephem.      DE431  
   SB-pert. ephem.      SB431-N16  
   condition code      0  
   norm. resid. RMS      .55507  
   source      ORB  
   producer      Otto Matic  
   solution date      2020-Aug-25 10:58:34  

Additional Information
 Earth MOID = .843355 au 
 Jupiter MOID = 2.7656 au 
 T_jup = 3.579 
[ show covariance matrix ]

Ephemeris | Orbit Diagram | Orbital Elements | Mission Design | Physical Parameters | Discovery Circumstances ]

Physical Parameter Table
Parameter Symbol Value Units Sigma Reference Notes
absolute magnitude H 15.9   n/a MPO475175  

134942 (2001 BO53)          Discovered 2001-Jan-17 by NEAT at Haleakala
Reference: 20060907/Numbers.arcLast Updated: 2006-09-10

Alternate Designations
 2001 BO53 = 1996 TH14 
Ephemeris | Orbit Diagram | Orbital Elements | Mission Design | Physical Parameters | Discovery Circumstances ]
ABOUT SSD CREDITS/AWARDS PRIVACY/COPYRIGHT GLOSSARY LINKS
FirstGov 2020-Oct-25 12:35 UT
(server date/time)  
NASA Home Page
Site Manager:   Ryan S. Park
Webmaster  Alan B. Chamberlin